Temp_Advection
nan nan nan nan nan nan nan nan nan nan nan nan nan nan nan nan nan nan nan nan nan nan nan nan nan nan nan nan nan nan nan nan nan nan nan nan nan nan nan nan nan nan nan nan nan
nan -1 0 -0 -1 -0 -0 -0 -1 -0 -0 -0 -0 -0 -0 -1 -0 -0 -1 -0 -0 -0 -0 -0 -1 -0 -1 -0 -0 -0 -0 -0 -0 -0 0 0 0 0 -0 -0 0 0 -0 0 nan
nan -1 -0 -0 -1 -0 0 0 -0 -1 -1 -0 -0 -0 -0 -0 -1 -1 0 0 -0 -0 0 -0 -0 -0 -0 -0 -0 -0 -1 0 0 0 0 0 0 0 -0 -0 0 0 -0 -0 nan
nan -1 -0 -0 -1 -1 -1 -0 0 -0 -1 -0 -0 -0 -0 -1 -0 0 0 -0 -0 0 -0 -0 -0 -0 -0 -0 -0 -0 -0 -0 0 0 0 0 0 0 -0 0 -0 0 0 -0 nan
nan -1 -1 -0 -1 -1 -1 -0 0 -0 -1 -1 -0 -0 -0 -1 -1 -1 -0 -0 0 0 -0 -0 -0 -0 -0 -0 0 -0 -0 0 0 0 -0 0 -0 -0 0 0 0 0 0 0 nan
nan -1 -1 -1 -1 -1 -1 -1 -0 0 -0 -0 0 0 -0 -2 -1 0 -0 0 0 0 -1 -0 -0 -0 -0 -0 0 -0 0 0 0 0 0 -0 -0 0 -0 0 0 1 0 -0 nan
nan -0 -1 -1 -1 -1 -1 -1 -0 0 0 -0 0 0 -1 -3 -0 0 0 0 0 -0 -0 -0 0 0 -0 0 0 0 -0 0 -0 -0 0 0 -0 -1 -0 0 0 1 0 -0 nan
nan -0 -0 -1 -1 -1 -1 -1 -1 0 0 -0 0 -0 -2 -1 0 -1 0 -0 -0 -0 -0 0 0 -0 0 0 0 -0 0 -0 -0 0 0 -0 -1 -0 -0 0 0 -0 -0 0 nan
nan -0 0 -0 -1 -1 -1 -1 -1 0 0 0 0 -1 -2 -0 -1 -0 0 -0 -0 -0 0 -0 -0 -0 -0 -0 -0 -0 -0 -0 0 0 0 -0 -1 -0 -0 -0 -0 -0 0 0 nan
nan -0 -0 -0 -0 -1 -1 -2 -1 0 1 -0 -1 -1 -2 -1 -0 0 -0 -0 -0 -0 -0 -0 -0 -0 -0 -0 -0 -1 -0 -0 0 -0 0 -0 -0 -0 -0 -0 -0 -0 0 0 nan
nan -0 -0 0 -0 -1 -1 -1 0 1 1 -0 -1 -1 0 1 -0 -0 -0 -0 -0 -1 -1 -1 -0 -0 -1 -1 -1 0 0 -0 -0 -0 0 -0 -1 -0 -0 0 -0 0 -0 -0 nan
nan -0 -0 -0 -0 -0 -1 -1 -0 -0 -1 -2 -1 -0 0 -0 -1 -1 -0 -0 -1 -1 -1 -0 -0 -1 -0 0 1 1 0 -0 -0 0 0 -0 -1 -1 -0 -0 -0 -0 -0 0 nan
nan -0 -0 -0 -0 -0 -1 -1 -1 -0 -0 -1 1 -0 -0 -1 -1 -0 -0 -1 -1 -0 -0 -0 -1 -0 0 1 0 0 -0 -0 -0 -0 0 1 -1 -1 -0 0 0 -0 -0 -0 nan
nan -0 -0 -0 -0 -0 -0 -0 -1 -1 -0 -0 -1 -1 -2 -1 -1 -0 -0 -1 -0 -0 -0 -0 0 0 1 0 0 -0 -0 0 0 0 -0 0 -0 -1 -1 -0 -0 -0 0 1 nan
nan -0 -0 0 -0 -1 -0 -0 -0 -0 -1 -0 -2 -1 -1 -1 -0 0 -0 -0 0 -0 0 0 1 0 0 -1 -0 -0 -0 1 0 -0 -0 0 -0 -1 -0 -0 0 -0 -0 -0 nan
nan -0 -0 -0 -0 -0 -0 0 -1 -1 -1 0 0 -1 -1 -1 -1 -0 0 0 0 0 1 1 0 0 -0 -0 0 0 0 0 0 0 -0 -1 -0 -1 -0 -0 -0 0 0 1 nan
nan -0 -0 -0 -1 -0 0 0 -0 -1 0 -0 -0 -0 -0 -1 -0 0 -0 0 0 0 0 0 0 0 0 0 0 1 0 0 0 -0 -1 -0 0 -1 -1 -0 -0 -0 0 1 nan
nan -0 -0 -0 -0 0 -0 -0 -1 -0 -1 -0 -0 0 0 -1 -1 -1 -0 -1 -1 -1 -0 -0 -0 -1 -0 -0 -0 -0 0 -0 -0 -1 0 -0 -0 -0 -0 -0 0 0 0 0 nan
nan -0 -0 -0 -0 0 -0 -0 -0 -1 -1 -0 0 0 -0 0 -0 -0 -0 -1 -0 -0 -0 -1 -1 -0 -0 0 -0 -0 -1 -0 -0 -0 -0 -0 -1 -1 -0 -0 0 0 0 1 nan
nan -1 -1 -0 0 -0 -0 -1 -1 -1 -0 -1 1 -1 -1 0 -0 -0 -1 -1 -1 -1 -1 0 0 1 0 0 0 0 0 1 0 0 -1 -1 -0 -0 0 0 -0 -0 0 0 nan
nan -1 -0 0 0 -0 -0 -1 -2 -0 0 -0 -2 -0 0 -1 -1 -1 -1 -0 -1 -0 1 0 1 0 0 -0 -0 0 -0 -1 -0 0 -0 -1 -1 -0 0 0 -0 -0 0 0 nan
nan -0 -0 0 -0 -0 -1 -2 -1 -0 1 1 -1 -2 -4 -1 -0 -0 -1 -1 0 0 1 0 1 0 -0 -0 0 0 -0 -0 0 -0 -0 0 -1 -0 -0 0 0 -0 0 -0 nan
nan -1 0 0 -0 -0 -1 -0 -0 -0 1 0 -1 -2 -2 0 -0 0 -1 1 1 1 0 1 0 -0 -0 0 0 0 -0 -0 -0 0 1 -0 -0 0 0 0 0 0 0 -0 nan
nan -0 0 -0 -0 -1 -0 0 0 -0 -0 0 0 -2 -2 -2 0 1 0 1 1 1 1 0 0 -0 -0 -1 -0 -0 -0 -0 0 0 -0 -1 -1 -0 0 -0 0 0 0 0 nan
nan -0 -0 -0 0 0 -0 -1 -2 -1 -0 1 1 -1 -1 -1 0 -0 0 -0 -0 1 0 0 0 -0 -1 -0 0 -0 0 0 0 -0 -0 -0 -1 -1 -0 0 0 0 0 0 nan
nan -0 -0 -0 -0 0 0 -1 -1 -1 0 1 -1 -1 -1 -2 -0 -2 -0 -1 -0 0 0 0 0 0 0 0 0 0 -0 0 -0 -0 -0 -0 -1 -1 -0 0 0 0 0 1 nan
nan nan nan nan nan nan nan nan nan nan nan nan nan nan nan nan nan nan nan nan nan nan nan nan nan nan nan nan nan nan nan nan nan nan nan nan nan nan nan nan nan nan nan nan nan
Wind_Speed
26 27 26 25 23 24 22 21 19 19 18 18 17 17 16 17 16 15 16 11 8 11 9 8 7 7 7 9 7 6 7 8 5 5 4 7 9 6 2 4 6 7 2 6 12
25 25 27 27 27 25 25 23 21 21 20 20 19 18 18 18 19 22 18 12 12 9 11 11 11 9 13 12 9 11 9 8 4 1 1 6 8 8 7 10 10 9 5 8 11
27 26 24 27 29 29 25 26 23 21 22 21 21 19 17 15 16 10 6 13 15 12 12 12 12 11 14 12 15 16 12 5 4 3 2 3 5 5 9 11 10 11 13 12 13
27 28 26 26 29 29 29 27 27 23 23 22 20 18 16 9 6 3 3 3 16 15 13 12 13 14 12 11 15 12 17 5 3 5 4 6 3 7 11 14 4 4 6 11 15
26 30 29 26 28 32 29 26 28 27 24 22 19 16 13 11 22 14 12 6 12 18 16 16 15 16 13 12 10 14 14 9 9 6 7 6 11 13 15 16 14 11 10 12 16
25 27 26 27 28 30 31 32 27 28 26 22 18 15 12 17 12 17 16 15 11 19 17 17 12 13 9 18 12 5 17 11 12 12 8 9 14 8 13 12 18 20 17 15 16
23 24 28 25 28 28 29 30 29 35 25 22 18 14 16 27 10 10 9 10 13 19 16 17 12 10 8 6 10 8 9 11 14 13 11 6 14 18 23 18 21 17 17 16 17
23 25 23 27 27 26 26 29 28 24 22 21 16 11 17 12 19 22 11 9 12 16 15 15 14 12 9 4 5 10 11 12 11 7 5 6 14 11 1 7 11 16 19 17 17
23 25 24 25 25 26 26 26 27 24 20 19 14 12 17 13 26 24 23 14 13 14 14 10 15 17 11 11 11 11 10 14 9 9 3 11 9 5 3 4 9 10 13 16 17
23 24 22 22 27 27 25 24 30 26 24 13 13 9 22 18 17 17 23 22 18 16 13 14 15 13 13 13 13 14 13 11 10 8 7 10 14 14 19 19 19 19 18 19 20
22 22 21 21 22 26 25 18 13 13 33 18 17 20 5 19 15 15 22 25 20 21 17 22 14 19 21 19 16 12 10 11 7 4 3 13 16 16 17 21 22 23 23 24 24
21 20 19 19 21 23 25 18 9 4 9 29 28 21 23 6 12 17 25 23 20 19 22 15 21 20 18 17 17 16 14 15 14 10 3 13 17 20 20 23 26 25 25 25 25
21 22 19 18 20 22 25 25 31 24 6 14 41 32 15 21 17 26 31 34 22 23 24 24 14 21 18 19 16 16 16 14 15 7 13 20 18 21 13 12 16 20 21 22 23
22 21 19 17 18 13 14 11 18 17 6 7 11 19 35 13 12 19 31 33 15 24 23 23 23 10 20 18 17 18 16 14 13 13 12 2 7 17 17 19 17 20 21 20 17
22 23 20 16 16 14 12 23 8 14 6 14 22 12 32 30 12 23 25 28 21 19 20 18 22 18 20 20 20 17 14 14 12 14 16 16 11 14 9 13 14 4 3 0 10
21 23 19 18 17 17 15 19 15 5 7 9 14 21 27 34 32 21 24 18 22 18 18 22 12 16 17 16 13 8 7 5 7 9 13 16 14 9 8 7 4 7 9 7 7
21 23 22 18 19 11 10 1 4 6 9 7 14 24 34 28 33 18 25 23 15 18 17 16 16 11 11 19 10 13 11 6 9 7 10 12 8 13 14 17 13 10 13 9 4
23 24 26 19 18 18 11 2 9 5 11 6 11 20 30 25 32 27 25 25 27 24 15 17 16 21 14 20 12 22 19 10 10 12 10 3 6 3 3 3 14 12 10 10 10
23 19 21 17 15 19 15 7 4 8 7 6 14 20 26 25 19 33 29 30 30 28 23 18 17 17 15 20 20 17 20 19 21 19 14 11 13 15 14 16 5 11 15 10 7
20 19 27 18 15 22 9 16 9 15 2 13 15 17 23 29 23 33 31 31 30 31 25 16 14 10 19 13 22 22 11 13 10 13 16 11 14 8 6 4 3 9 9 5 4
13 7 9 8 19 18 10 12 18 26 16 5 11 14 21 25 31 30 27 18 32 29 27 20 16 10 14 17 17 13 16 13 13 15 9 12 10 8 10 4 5 10 7 4 4
6 4 6 11 7 4 12 22 24 13 23 16 8 13 20 26 30 27 32 29 28 27 33 29 12 12 21 8 22 21 20 23 13 14 14 16 16 6 7 8 4 7 5 1 4
5 12 8 12 6 11 16 23 26 19 17 6 9 15 17 20 21 26 24 21 19 27 27 24 14 15 15 8 7 12 20 21 22 17 23 13 7 5 3 2 6 5 3 2 4
4 3 6 9 11 8 17 20 21 29 24 19 6 13 17 16 18 20 23 8 16 24 22 25 20 26 19 17 14 23 23 25 23 17 17 22 21 17 11 10 14 13 8 8 8
5 5 4 3 5 9 11 10 21 23 23 21 9 15 14 8 18 10 21 7 11 23 22 18 24 21 23 18 8 18 24 23 27 25 22 18 22 19 18 15 18 22 12 15 16
3 4 4 14 18 14 12 16 20 19 25 26 17 12 22 21 20 23 24 16 14 19 23 20 12 21 18 22 11 14 17 22 24 25 27 24 26 20 22 19 16 19 18 16 19
8 11 8 9 11 10 13 8 6 18 21 32 29 23 20 22 10 19 18 16 13 22 24 22 15 13 19 16 14 20 22 19 21 22 22 22 21 19 18 16 20 14 14 13 14
Wind_Direction
284 275 270 269 271 275 277 283 285 280 278 279 285 299 304 302 302 301 276 246 226 224 213 195 203 210 211 206 213 228 242 223 191 216 164 164 200 197 233 241 211 199 310 116 165
287 280 274 266 267 269 273 274 279 281 279 278 279 288 299 307 306 290 266 238 220 213 202 201 202 200 208 214 213 223 227 240 48 17 221 170 231 193 216 216 214 202 170 161 172
280 281 280 275 262 264 269 270 273 277 278 276 279 282 291 309 310 266 261 215 203 200 198 216 215 208 228 216 215 219 245 222 181 189 177 187 227 223 239 245 240 233 203 189 186
277 277 275 284 274 256 257 269 268 270 274 275 272 278 285 289 276 239 211 217 206 200 208 211 212 210 225 212 222 246 233 265 190 185 201 221 229 235 241 252 314 264 249 196 204
287 275 274 273 281 266 255 262 264 266 268 271 267 271 279 250 247 266 250 254 212 200 204 206 210 215 223 218 212 234 245 223 236 223 238 247 248 259 260 247 255 246 237 227 221
298 281 279 272 276 278 259 249 265 259 262 266 263 262 261 256 255 247 248 243 208 197 203 209 214 218 259 236 228 267 238 234 241 238 233 246 263 257 253 250 253 245 244 240 230
300 297 273 281 271 274 271 256 254 248 252 257 256 252 249 239 245 243 240 214 206 200 205 211 218 201 224 232 229 244 242 228 234 235 235 244 261 252 257 256 247 247 241 240 236
303 298 303 275 276 274 275 257 251 241 238 247 248 239 250 252 241 239 233 220 211 203 208 215 218 228 226 141 189 221 233 253 242 189 196 216 270 272 93 253 248 251 242 237 231
301 297 283 288 280 276 266 261 246 248 235 236 236 215 249 235 235 236 218 211 203 199 203 211 206 215 201 213 223 209 245 209 193 184 202 214 277 113 152 215 251 249 237 232 230
304 293 285 293 277 281 271 269 235 237 231 209 211 198 246 234 227 221 211 202 197 188 189 197 203 212 217 214 224 228 215 250 249 161 210 245 256 267 271 267 264 260 250 237 234
309 301 285 281 284 283 281 286 204 225 183 185 187 213 352 204 200 206 192 187 196 192 198 200 213 213 218 224 235 258 265 264 249 166 243 264 271 274 275 275 266 262 257 254 241
319 305 293 283 285 281 283 275 235 336 298 224 227 228 232 231 224 197 178 181 195 199 205 194 222 222 227 233 229 243 250 250 261 269 225 277 284 287 273 264 267 266 261 254 252
316 313 299 292 283 287 282 278 271 279 250 225 214 214 221 215 227 199 185 194 194 205 206 214 216 224 223 227 233 232 241 251 266 268 268 275 278 269 244 243 260 260 256 256 250
312 318 301 296 291 282 264 262 279 261 247 182 190 234 221 207 234 217 199 191 198 214 213 227 219 212 216 226 215 240 232 251 281 278 276 165 290 296 288 278 272 266 263 253 247
307 312 308 284 273 278 293 284 320 174 233 166 195 195 194 196 179 206 197 203 209 208 208 213 219 199 208 221 231 241 262 252 258 270 280 268 273 271 221 264 275 49 65 18 245
303 309 303 300 273 270 273 283 321 235 247 192 176 190 180 202 215 176 188 200 217 214 226 225 210 219 219 219 225 236 202 222 239 258 259 257 242 270 242 251 285 278 266 257 261
299 302 298 285 272 260 264 185 255 216 157 195 184 180 190 195 201 177 184 193 186 194 201 216 214 210 214 217 191 195 205 235 228 216 248 257 257 257 289 279 306 305 301 294 268
298 294 300 279 256 237 233 238 217 282 200 194 196 194 198 182 202 191 188 197 207 202 183 200 211 202 194 213 194 209 216 218 226 248 262 133 234 235 237 301 272 298 302 277 261
301 299 283 276 234 215 205 209 265 225 306 226 191 188 203 198 190 199 204 204 201 205 219 196 222 188 191 207 207 194 220 233 258 275 279 257 248 251 253 278 276 311 305 284 253
299 296 281 254 221 203 211 225 229 242 341 306 189 206 193 196 208 195 202 212 210 208 215 225 212 191 186 211 225 232 203 212 228 245 248 246 249 251 193 214 10 351 335 312 225
295 274 270 212 195 199 213 226 231 251 268 289 265 230 211 189 199 201 204 205 202 198 210 219 216 169 161 206 193 202 221 219 237 226 254 269 259 214 207 194 322 332 345 317 208
255 252 245 199 198 206 220 221 236 247 245 236 310 265 261 202 200 214 211 205 202 197 200 211 201 204 199 213 219 210 215 217 224 224 231 249 262 222 178 209 300 317 342 1 190
248 268 256 219 242 211 229 230 236 239 251 219 232 244 245 235 206 214 208 226 183 192 195 201 221 219 204 182 207 229 223 223 227 247 251 228 216 61 268 235 240 278 322 146 183
261 277 222 198 249 256 245 237 233 228 237 241 274 286 268 274 196 205 220 206 198 198 182 202 211 217 216 210 203 214 221 223 225 233 243 244 257 249 219 246 266 255 249 216 197
229 245 269 276 280 318 302 312 241 230 215 220 255 248 258 232 209 242 200 158 209 192 189 214 215 224 237 232 211 212 217 219 224 233 238 249 250 250 254 256 269 268 240 251 229
259 254 258 283 283 288 290 284 247 238 238 219 222 240 237 236 215 202 197 188 176 185 194 211 213 225 226 236 197 229 218 220 232 229 244 251 256 262 269 274 270 277 268 262 253
244 264 270 271 280 282 274 270 295 266 228 246 225 233 251 254 324 235 200 211 178 176 188 197 205 199 225 215 239 243 226 226 228 228 236 242 254 253 254 259 263 267 271 266 254
Height
1522 1521 1521 1520 1520 1520 1519 1518 1517 1517 1516 1516 1515 1514 1512 1511 1509 1507 1505 1506 1506 1506 1508 1510 1510 1511 1511 1511 1512 1510 1504 1499 1497 1500 1496 1504 1505 1508 1509 1509 1512 1514 1515 1517 1517
1516 1516 1515 1516 1516 1515 1515 1515 1514 1514 1513 1512 1512 1511 1511 1509 1506 1502 1502 1500 1502 1504 1507 1508 1509 1510 1509 1509 1509 1506 1503 1495 1496 1498 1500 1503 1505 1505 1509 1508 1511 1513 1514 1515 1517
1510 1511 1510 1511 1511 1511 1510 1511 1510 1510 1510 1509 1509 1509 1509 1508 1504 1497 1496 1496 1499 1501 1505 1507 1507 1508 1506 1505 1506 1504 1501 1494 1500 1503 1504 1505 1507 1508 1507 1505 1507 1507 1510 1513 1515
1504 1505 1505 1506 1506 1505 1506 1505 1506 1506 1505 1507 1506 1506 1506 1507 1504 1497 1496 1495 1496 1499 1504 1505 1505 1506 1504 1503 1502 1502 1500 1499 1500 1504 1505 1504 1505 1506 1507 1505 1506 1508 1509 1511 1513
1499 1498 1499 1501 1501 1500 1500 1500 1501 1501 1501 1501 1503 1504 1505 1504 1495 1497 1495 1494 1494 1497 1500 1502 1502 1502 1501 1499 1500 1502 1496 1500 1502 1504 1504 1505 1504 1504 1502 1504 1505 1506 1507 1508 1509
1495 1493 1494 1494 1495 1495 1495 1495 1494 1495 1496 1497 1498 1500 1502 1499 1492 1491 1490 1492 1493 1495 1498 1500 1499 1500 1499 1497 1497 1495 1496 1497 1499 1500 1502 1503 1500 1501 1498 1500 1500 1501 1503 1504 1505
1490 1489 1488 1489 1490 1490 1488 1489 1490 1490 1491 1493 1494 1496 1498 1488 1488 1487 1488 1490 1491 1493 1495 1498 1499 1499 1497 1497 1498 1498 1499 1496 1496 1497 1498 1501 1497 1494 1493 1494 1494 1496 1498 1500 1501
1487 1485 1485 1484 1485 1484 1483 1482 1484 1482 1484 1488 1490 1492 1488 1483 1483 1484 1485 1487 1488 1491 1494 1496 1498 1498 1497 1497 1498 1498 1497 1498 1486 1492 1497 1501 1495 1484 1488 1491 1491 1492 1492 1493 1496
1483 1481 1481 1480 1480 1478 1478 1476 1478 1479 1480 1482 1486 1489 1482 1475 1475 1477 1481 1484 1487 1489 1491 1493 1496 1495 1495 1494 1494 1491 1492 1490 1489 1490 1492 1496 1488 1482 1488 1489 1488 1487 1487 1489 1491
1480 1478 1477 1476 1476 1474 1472 1472 1473 1474 1476 1477 1482 1488 1474 1468 1469 1470 1475 1481 1484 1486 1490 1491 1492 1490 1488 1487 1492 1487 1488 1484 1486 1487 1492 1490 1488 1484 1484 1483 1482 1482 1481 1482 1484
1478 1474 1474 1472 1472 1470 1470 1471 1471 1470 1458 1455 1461 1461 1458 1464 1465 1466 1470 1476 1480 1482 1480 1484 1486 1481 1478 1478 1476 1476 1481 1481 1477 1479 1489 1488 1482 1478 1477 1478 1476 1475 1476 1475 1475
1475 1473 1469 1468 1468 1467 1467 1466 1464 1466 1458 1454 1457 1458 1461 1462 1462 1462 1466 1471 1472 1471 1474 1476 1476 1473 1475 1474 1477 1479 1482 1483 1478 1476 1486 1483 1479 1474 1472 1468 1469 1467 1466 1467 1469
1471 1468 1466 1465 1465 1463 1461 1461 1460 1459 1460 1446 1445 1450 1455 1460 1456 1455 1458 1461 1462 1464 1463 1463 1465 1470 1471 1473 1477 1479 1480 1479 1480 1475 1476 1476 1474 1462 1457 1462 1461 1460 1461 1461 1461
1468 1466 1463 1462 1463 1458 1458 1457 1453 1455 1449 1436 1440 1439 1449 1454 1450 1448 1451 1455 1455 1455 1457 1459 1460 1464 1468 1473 1476 1480 1473 1477 1482 1484 1487 1474 1482 1464 1457 1455 1452 1451 1450 1451 1456
1464 1462 1459 1460 1458 1457 1458 1452 1452 1449 1421 1415 1421 1429 1431 1438 1435 1442 1448 1450 1448 1449 1453 1456 1456 1462 1466 1469 1470 1474 1472 1474 1480 1481 1478 1474 1477 1458 1448 1449 1443 1448 1449 1450 1452
1460 1458 1456 1456 1455 1454 1455 1453 1450 1442 1413 1408 1406 1409 1422 1429 1431 1434 1441 1447 1449 1448 1447 1449 1454 1455 1459 1464 1467 1470 1477 1480 1481 1480 1482 1469 1470 1455 1443 1440 1439 1442 1444 1446 1448
1455 1453 1451 1451 1449 1452 1451 1453 1453 1432 1418 1412 1403 1396 1397 1411 1421 1426 1431 1439 1439 1448 1449 1455 1451 1455 1457 1461 1466 1472 1474 1485 1481 1482 1474 1452 1461 1448 1439 1437 1440 1441 1443 1444 1445
1449 1446 1443 1443 1444 1447 1449 1449 1431 1408 1407 1391 1393 1393 1395 1397 1412 1416 1424 1428 1429 1428 1434 1447 1454 1450 1453 1451 1461 1465 1466 1467 1478 1466 1452 1463 1462 1445 1437 1438 1439 1440 1441 1441 1442
1443 1440 1437 1434 1437 1441 1445 1439 1423 1408 1401 1394 1391 1389 1398 1394 1396 1406 1409 1406 1413 1418 1427 1431 1437 1430 1440 1446 1449 1456 1461 1454 1459 1452 1456 1448 1441 1433 1433 1433 1434 1437 1437 1437 1437
1437 1435 1426 1425 1429 1434 1435 1428 1421 1412 1407 1405 1390 1384 1384 1387 1393 1394 1401 1394 1404 1411 1416 1414 1432 1432 1440 1447 1444 1443 1449 1463 1461 1469 1466 1442 1439 1436 1431 1430 1435 1435 1435 1435 1437
1433 1429 1420 1418 1422 1425 1421 1417 1413 1413 1410 1408 1390 1376 1372 1382 1381 1379 1381 1384 1392 1402 1413 1413 1419 1439 1437 1439 1439 1448 1448 1446 1443 1444 1450 1446 1431 1410 1425 1428 1433 1433 1434 1435 1436
1429 1425 1416 1416 1418 1414 1412 1407 1406 1402 1405 1407 1406 1396 1375 1365 1375 1374 1374 1373 1379 1392 1401 1403 1413 1423 1430 1423 1428 1430 1433 1436 1442 1443 1435 1438 1431 1417 1423 1427 1431 1433 1433 1434 1435
1424 1418 1414 1414 1405 1403 1400 1400 1402 1404 1402 1406 1404 1393 1376 1365 1371 1372 1372 1374 1380 1384 1391 1402 1409 1418 1422 1431 1431 1430 1427 1427 1430 1431 1427 1437 1429 1415 1417 1423 1429 1432 1431 1432 1434
1423 1414 1409 1409 1407 1402 1396 1392 1393 1399 1401 1402 1400 1394 1384 1374 1363 1372 1370 1380 1379 1380 1391 1399 1398 1399 1398 1410 1413 1427 1422 1420 1424 1426 1426 1415 1419 1414 1416 1420 1423 1425 1427 1429 1430
1419 1413 1409 1405 1404 1407 1404 1402 1391 1389 1392 1394 1397 1398 1389 1385 1366 1375 1368 1382 1382 1380 1391 1394 1396 1396 1396 1391 1400 1404 1414 1415 1415 1414 1417 1412 1410 1411 1413 1415 1419 1420 1421 1423 1425
1415 1414 1408 1406 1402 1398 1397 1390 1387 1386 1390 1388 1390 1387 1384 1377 1368 1369 1361 1373 1371 1379 1386 1389 1394 1396 1398 1394 1398 1405 1404 1406 1409 1411 1408 1410 1404 1408 1410 1412 1414 1415 1417 1419 1419
1411 1411 1411 1402 1398 1397 1391 1388 1382 1383 1381 1379 1374 1381 1382 1371 1366 1359 1358 1366 1362 1367 1375 1382 1388 1392 1396 1397 1403 1404 1398 1399 1399 1400 1402 1404 1400 1403 1405 1408 1410 1411 1413 1413 1414